Location: Cactus School
(34.5700°N, 118.0931°W)
Time: 08:18:15
(UTC-07:00)

Vanguard 2 - Pass Details

Date: 23 April 2024
Orbit: 553 x 2914 km, 32.9° (Epoch: 22 May)

Event Time Altitude Azimuth Distance (km) Brightness Sun altitude
Exits shadow 02:58:20 49° 249° (WSW) 3,167 10.1 -33.8°
Maximum altitude 03:04:27 82° 170° (S) 2,837 10.1 -33.0°
Drops below altitude 10° 03:22:24 10° 87° (E) 5,612 12.4 -30.5°
Sets 03:26:29 0° 86° (E) 6,486 12.9 -29.9°
